User: anonymous   Login
Location: Les Gen�tes
(46.3104°N, 1.5969°E)
Time: 17:42:30
(UTC+00:00)
Language:

Cosmos 1110 Rocket - Orbit

View from above orbital plane
View from above orbital plane
View from above satellite
View from above satellite

Ground track
Ground track

The orbit data is extracted from the following two-line orbital elements,

1 11427U 79060B   20228.53441822 -.00000045  00000-0 -59705-5 0  9992
2 11427  74.0150  58.8700 0020969 281.2120  78.6676 14.37423861153923
Epoch (UTC): 15 August 2020 12:49:33
Eccentricity: 0.0020969
inclination: 74.0150°
perigee height: 752 km
apogee height: 782 km
right ascension of ascending node: 58.8700°
argument of perigee: 281.2120°
revolutions per day: 14.37423861
mean anomaly at epoch: 78.6676°
orbit number at epoch: 15392

The dashed part of the orbit path shows where the satellite is in the earth's shadow,  

DLR